This is the latest recevied weather packets stored in our database for station/object N9GKE-1. If no packets are shown the sender has not sent any weather packets the latest 1 day(s).
| Time | Temp. | Humidity | Pressure | Rain* | Wind** | Luminosity | Snow |
|---|---|---|---|---|---|---|---|
| 1777994351 | 11.67° C | 65% | 1008.7 hPa | 12.7 mm | 0.89 m/s, 45° | - | - |
| 1777993895 | 11.67° C | 67% | 1009 hPa | 12.7 mm | 0.45 m/s, 49° | - | - |
| 1777993750 | 11.67° C | 66% | 1009 hPa | 12.7 mm | 0.89 m/s, 32° | - | - |
| 1777993294 | 11.67° C | 70% | 1008.7 hPa | 12.7 mm | 0.45 m/s, 55° | - | - |
| 1777993151 | 11.67° C | 69% | 1008.6 hPa | 12.7 mm | 0.89 m/s, 44° | - | - |
| 1777992694 | 11.67° C | 69% | 1008.5 hPa | 0 mm | 1.34 m/s, 31° | - | - |
| 1777992550 | 11.67° C | 70% | 1008.6 hPa | 0 mm | 0.89 m/s, 329° | - | - |
| 1777992093 | 12.22° C | 70% | 1008.6 hPa | 0 mm | 0.89 m/s, 314° | - | - |
| 1777991494 | 12.22° C | 70% | 1008.4 hPa | 0 mm | 0.89 m/s, 6° | - | - |
| 1777991349 | 12.22° C | 71% | 1008.5 hPa | 0 mm | 0.89 m/s, 30° | - | - |
| 1777990894 | 12.22° C | 72% | 1008.4 hPa | 0 mm | 1.34 m/s, 30° | - | - |
| 1777990751 | 12.22° C | 72% | 1008.4 hPa | 0 mm | 0.89 m/s, 47° | - | - |
| 1777990294 | 12.78° C | 79% | 1008.3 hPa | 0 mm | 0.89 m/s, 22° | - | - |
| 1777990149 | 12.78° C | 79% | 1008.3 hPa | 0 mm | 0.89 m/s, 25° | - | - |
| 1777989694 | 12.22° C | 79% | 1008 hPa | 0 mm | 1.34 m/s, 344° | - | - |
| 1777989550 | 12.22° C | 79% | 1008 hPa | 0 mm | 0.45 m/s, 0° | - | - |
| 1777989094 | 12.22° C | 77% | 1007.9 hPa | 0 mm | 0.89 m/s, 323° | - | - |
| 1777988950 | 12.22° C | 78% | 1007.9 hPa | 0 mm | 0.89 m/s, 340° | - | - |
| 1777988494 | 12.22° C | 78% | 1008.2 hPa | 0 mm | 1.34 m/s, 16° | - | - |
| 1777987896 | 12.78° C | 82% | 1008.3 hPa | 0 mm | 2.24 m/s, 324° | - | - |
| 1777987749 | 12.78° C | 83% | 1008.3 hPa | 0 mm | 0.89 m/s, 312° | - | - |
| 1777987293 | 12.78° C | 89% | 1008.2 hPa | 0 mm | 2.24 m/s, 324° | - | - |
| 1777987150 | 13.33° C | 91% | 1008.2 hPa | 0 mm | 0.89 m/s, 288° | - | - |
| 1777986692 | 13.33° C | 92% | 1008 hPa | 0 mm | 0.45 m/s, 263° | - | - |
| 1777986549 | 13.33° C | 92% | 1008.1 hPa | 0 mm | 0.45 m/s, 239° | - | - |
* Rain latest hour (hover to see other rain measurements)
** Current wind speed in m/s (hover to see current wind gust speed)